Waterville, ME

4:54 PM EDT on September 24, 2016 (GMT -0400)
Waterville Lafleur

Weather History for KWVL - March, 2014

Change the Weather History Date:

Tuesday, March 11, 2014

  Actual Average Record
Temperature  
Mean Temperature 34 °F -  
Max Temperature 41 °F 41 °F 67 °F (1977)
Min Temperature 28 °F 21 °F -5 °F (2005)
Degree Days  
Heating Degree Days 30    
Moisture  
Dew Point 30 °F    
Average Humidity 83    
Maximum Humidity 100    
Minimum Humidity 56    
Precipitation  
Precipitation 0.11 in - - ()
Sea Level Pressure  
Sea Level Pressure 29.52 in    
Wind  
Wind Speed 5 mph (SW)    
Max Wind Speed 9 mph    
Max Gust Speed 16 mph    
Visibility 6 miles    
Events      
Averages and records for this station are not official NWS values.
T = Trace of Precipitation, MM = Missing Value Source: NWS Daily Summary

Daily Weather History Graph

Daily Weather History Graph

Search for Another Location

Airport or City:

Trip Planner

Search our weather history database for the weather conditions in past years. The results will help you decide how hot, cold, wet, or windy it might be!

Date:

Astronomy

Mar. 11, 2014 Rise Set
Actual Time 6:58 AM EDT 6:39 PM EDT
Civil Twilight 6:29 AM EDT 7:08 PM EDT
Nautical Twilight 5:55 AM EDT 7:42 PM EDT
Astronomical Twilight 5:21 AM EDT 8:16 PM EDT
Moon 2:04 PM EDT (3/11) 3:58 AM EDT (3/11)
Length of Visible Light 12h 39m
Length of Day
11h 41m
Waxing Gibbous, 78% of the Moon is Illuminated
Mar 11
Waxing Gibbous
Mar 16
Full
Mar 23
Last Quarter
Mar 30
New
Apr 7
First Quarter

Hourly Weather History & Observations

Time (EDT) Temp. Windchill Dew Point Humidity Pressure Visibility Wind Dir Wind Speed Gust Speed Precip Events Conditions
12:15 AM 28.4 °F 23.3 °F 23.0 °F 80% 29.60 in 10.0 mi South 4.6 mph - N/A   Overcast
12:35 AM 28.4 °F 23.3 °F 23.0 °F 80% 29.60 in 10.0 mi South 4.6 mph - N/A   Overcast
12:55 AM 28.4 °F 23.3 °F 24.8 °F 86% 29.59 in 2.5 mi SSE 4.6 mph - N/A   Overcast
1:15 AM 28.4 °F 23.3 °F 24.8 °F 86% 29.57 in 2.0 mi SE 4.6 mph - N/A   Overcast
1:35 AM 28.4 °F 24.6 °F 26.6 °F 93% 29.56 in 1.5 mi SE 3.5 mph - N/A   Overcast
1:55 AM 28.4 °F 24.6 °F 26.6 °F 93% 29.54 in 1.5 mi SE 3.5 mph - N/A   Overcast
2:15 AM 28.4 °F 24.6 °F 26.6 °F 93% 29.53 in 1.5 mi ESE 3.5 mph - N/A   Overcast
2:35 AM 28.4 °F - 26.6 °F 93% 29.51 in 2.0 mi Calm Calm - N/A   Overcast
2:55 AM 28.4 °F - 26.6 °F 93% 29.50 in 1.8 mi Calm Calm - N/A   Overcast
3:15 AM 28.4 °F 24.6 °F 28.4 °F 100% 29.49 in 1.0 mi SSE 3.5 mph - N/A   Overcast
3:35 AM 30.2 °F 25.4 °F 28.4 °F 93% 29.48 in 1.0 mi SSE 4.6 mph - N/A   Overcast
3:55 AM 30.2 °F 26.7 °F 28.4 °F 93% 29.47 in 3.0 mi SSE 3.5 mph - N/A   Overcast
4:15 AM 30.2 °F 26.7 °F 28.4 °F 93% 29.47 in 3.0 mi South 3.5 mph - N/A   Overcast
4:35 AM 30.2 °F - 30.2 °F 100% 29.46 in 3.0 mi Calm Calm - N/A   Overcast
4:55 AM 30.2 °F 26.7 °F 30.2 °F 100% 29.46 in 2.5 mi South 3.5 mph - N/A   Overcast
5:15 AM 30.2 °F 26.7 °F 30.2 °F 100% 29.45 in 2.5 mi South 3.5 mph - N/A   Overcast
5:35 AM 32.0 °F 27.5 °F 30.2 °F 93% 29.44 in 3.0 mi South 4.6 mph - N/A   Overcast
5:55 AM 32.0 °F 26.4 °F 30.2 °F 93% 29.44 in 4.0 mi South 5.8 mph - N/A   Overcast
6:15 AM 32.0 °F 26.4 °F 32.0 °F 100% 29.45 in 3.0 mi SSW 5.8 mph - N/A   Overcast
6:35 AM 32.0 °F 24.8 °F 30.2 °F 93% 29.45 in 1.0 mi SSW 8.1 mph - N/A   Overcast
6:55 AM 32.0 °F 26.4 °F 32.0 °F 100% 29.44 in 0.2 mi South 5.8 mph - N/A   Overcast
7:15 AM 32.0 °F 26.4 °F 32.0 °F 100% 29.44 in 0.2 mi South 5.8 mph - N/A   Overcast
7:35 AM 32.0 °F 27.5 °F 32.0 °F 100% 29.44 in 0.2 mi SSW 4.6 mph - N/A   Overcast
7:55 AM 33.8 °F - 32.0 °F 93% 29.43 in 0.2 mi Calm Calm - N/A   Overcast
8:15 AM 33.8 °F 30.8 °F 32.0 °F 93% 29.43 in 0.2 mi South 3.5 mph - N/A   Overcast
8:35 AM 33.8 °F 28.6 °F 32.0 °F 93% 29.44 in 0.2 mi SSW 5.8 mph - 0.01 in   Overcast
8:55 AM 33.8 °F 27.7 °F 32.0 °F 93% 29.44 in 0.2 mi SSW 6.9 mph - 0.03 in   Overcast
9:15 AM 33.8 °F 29.6 °F 33.8 °F 100% 29.45 in 0.8 mi SSW 4.6 mph - 0.02 in   Overcast
9:35 AM 33.8 °F 29.6 °F 33.8 °F 100% 29.45 in 1.2 mi SSW 4.6 mph - 0.03 in   Overcast
9:55 AM 33.8 °F 28.6 °F 33.8 °F 100% 29.45 in 1.8 mi SSW 5.8 mph - 0.04 in   Overcast
10:15 AM 33.8 °F 27.7 °F 33.8 °F 100% 29.45 in 2.0 mi SSW 6.9 mph - 0.02 in   Overcast
10:35 AM 33.8 °F 26.4 °F 33.8 °F 100% 29.45 in 2.0 mi SSW 9.2 mph - 0.03 in   Overcast
10:55 AM 33.8 °F 26.4 °F 33.8 °F 100% 29.45 in 3.0 mi SSW 9.2 mph - 0.03 in   Overcast
11:15 AM 33.8 °F 26.4 °F 33.8 °F 100% 29.46 in 3.0 mi SSW 9.2 mph - 0.01 in   Overcast
11:35 AM 35.6 °F 29.9 °F 33.8 °F 93% 29.46 in 3.0 mi SSW 6.9 mph - 0.01 in   Overcast
11:55 AM 35.6 °F 29.2 °F 33.8 °F 93% 29.45 in 4.0 mi SSW 8.1 mph - 0.01 in   Overcast
12:15 PM 35.6 °F 28.6 °F 33.8 °F 93% 29.45 in 5.0 mi SSW 9.2 mph - N/A   Overcast
12:35 PM 37.4 °F 32.8 °F 33.8 °F 87% 29.46 in 5.0 mi SSW 5.8 mph - N/A   Overcast
12:55 PM 37.4 °F 30.8 °F 33.8 °F 87% 29.46 in 5.0 mi SW 9.2 mph - N/A   Overcast
1:15 PM 37.4 °F 32.1 °F 33.8 °F 87% 29.46 in 5.0 mi SW 6.9 mph - N/A   Overcast
1:35 PM 37.4 °F 31.4 °F 33.8 °F 87% 29.46 in 8.0 mi SW 8.1 mph - N/A   Overcast
1:55 PM 39.2 °F 34.2 °F 33.8 °F 81% 29.46 in 9.0 mi SW 6.9 mph - N/A   Overcast
2:15 PM 39.2 °F 34.2 °F 33.8 °F 81% 29.46 in 10.0 mi SW 6.9 mph - N/A   Overcast
2:35 PM 39.2 °F 35.9 °F 33.8 °F 81% 29.47 in 10.0 mi SW 4.6 mph - N/A   Overcast
2:55 PM 39.2 °F 35.0 °F 33.8 °F 81% 29.48 in 10.0 mi WSW 5.8 mph - N/A   Overcast
3:15 PM 39.2 °F 35.9 °F 33.8 °F 81% 29.49 in 10.0 mi West 4.6 mph - N/A   Overcast
3:35 PM 39.2 °F 33.6 °F 33.8 °F 81% 29.50 in 10.0 mi WSW 8.1 mph - N/A   Overcast
3:55 PM 39.2 °F 33.0 °F 33.8 °F 81% 29.51 in 10.0 mi West 9.2 mph - N/A   Overcast
4:15 PM 39.2 °F 34.2 °F 33.8 °F 81% 29.51 in 10.0 mi West 6.9 mph - N/A   Overcast
4:35 PM 39.2 °F 37.0 °F 33.8 °F 81% 29.51 in 10.0 mi WSW 3.5 mph - N/A   Overcast
4:55 PM 41.0 °F 38.0 °F 32.0 °F 70% 29.52 in 10.0 mi SW 4.6 mph - N/A   Overcast
5:15 PM 41.0 °F 35.8 °F 30.2 °F 65% 29.52 in 10.0 mi WSW 8.1 mph - N/A   Overcast
5:35 PM 39.2 °F 34.2 °F 30.2 °F 70% 29.52 in 10.0 mi WSW 6.9 mph - N/A   Mostly Cloudy
5:55 PM 41.0 °F 37.1 °F 30.2 °F 65% 29.54 in 10.0 mi West 5.8 mph - N/A   Mostly Cloudy
6:15 PM 39.2 °F 34.2 °F 30.2 °F 70% 29.56 in 10.0 mi WSW 6.9 mph - N/A   Overcast
6:35 PM 39.2 °F 33.6 °F 28.4 °F 65% 29.56 in 10.0 mi West 8.1 mph - N/A   Overcast
6:55 PM 39.2 °F 34.2 °F 28.4 °F 65% 29.57 in 10.0 mi West 6.9 mph - N/A   Overcast
7:15 PM 39.2 °F 35.0 °F 26.6 °F 61% 29.59 in 10.0 mi West 5.8 mph - N/A   Overcast
7:35 PM 39.2 °F 35.0 °F 26.6 °F 61% 29.61 in 10.0 mi WNW 5.8 mph - N/A   Overcast
7:55 PM 39.2 °F 33.6 °F 24.8 °F 56% 29.62 in 10.0 mi WNW 8.1 mph - N/A   Overcast
8:15 PM 39.2 °F 33.0 °F 24.8 °F 56% 29.63 in 10.0 mi NW 9.2 mph 16.1 mph N/A   Overcast
8:35 PM 39.2 °F 34.2 °F 24.8 °F 56% 29.63 in 10.0 mi West 6.9 mph - N/A   Overcast
8:55 PM 39.2 °F 33.6 °F 24.8 °F 56% 29.64 in 10.0 mi NW 8.1 mph - N/A   Overcast
9:15 PM 39.2 °F 37.0 °F 24.8 °F 56% 29.63 in 10.0 mi SW 3.5 mph - N/A   Overcast
9:35 PM 37.4 °F 32.8 °F 26.6 °F 65% 29.64 in 10.0 mi West 5.8 mph - N/A   Mostly Cloudy
9:55 PM 39.2 °F 35.0 °F 24.8 °F 56% 29.64 in 10.0 mi West 5.8 mph - N/A   Clear
10:15 PM 37.4 °F 32.1 °F 24.8 °F 60% 29.63 in 10.0 mi WNW 6.9 mph - N/A   Mostly Cloudy
10:35 PM 37.4 °F 32.1 °F 24.8 °F 60% 29.63 in 10.0 mi NW 6.9 mph - N/A   Mostly Cloudy
10:55 PM 37.4 °F 32.8 °F 24.8 °F 60% 29.63 in 10.0 mi NW 5.8 mph - N/A   Scattered Clouds
11:15 PM 35.6 °F - 23.0 °F 60% 29.63 in 10.0 mi Calm Calm - N/A   Partly Cloudy
11:35 PM 33.8 °F 30.8 °F 24.8 °F 70% 29.64 in 10.0 mi SW 3.5 mph - N/A   Partly Cloudy
11:55 PM 32.0 °F - 24.8 °F 75% 29.65 in 10.0 mi Calm Calm - N/A   Partly Cloudy